Location: Huisseau
(47.5933°N, 1.4533°E)
Time: 17:58:11
(UTC+00:00)

CENTAUR R/B - Pass Details

Date: 27 November 2025
Orbit: 633 x 1547 km, 63.4° (Epoch: 06 December)

Event Time Altitude Azimuth Distance (km) Brightness Sun altitude
Exits shadow 03:11:06 25° 160° (SSE) 2,711 4.7 -40.6°
Drops below altitude 10° 03:14:24 10° 156° (SSE) 3,717 5.6 -40.1°
Sets 03:17:30 0° 154° (SSE) 4,699 6.2 -39.6°
